Location: Sternwarte Stuttgart
(48.7670°N, 9.1830°E)
Time: 17:41:15
(UTC+02:00)

Daily predictions for brighter satellites

Satellite Brightness Start Highest point End
(mag) Time Altitude Azimuth Time Altitude Azimuth Time Altitude Azimuth
Envisat 3.1 21:38:02 10° SSE 21:43:05 74° ENE 21:48:11 10° N
ERS-1 Rocket 3.6 21:40:37 10° S 21:45:34 59° WSW 21:50:34 10° NNW
SL-8 R/B 3.8 21:45:26 10° WSW 21:50:11 58° SSE 21:54:57 10° E
SL-24 R/B - RUBIN 2 4.3 21:44:52 10° SSW 21:50:18 64° ESE 21:56:28 10° NE
USA 186 4.4 21:51:05 10° SW 21:52:49 15° W 21:54:29 10° WNW
Cosmos 2369 Rocket 3.5 21:48:14 10° NNW 21:53:13 30° NE 21:58:08 10° ESE
Cosmos 2034 Rocket 4.1 21:48:03 10° N 21:54:27 74° E 22:00:48 10° SSE
Cosmos 2219 Rocket 3.6 21:51:52 10° SW 21:57:16 45° NW 22:02:41 10° NNE
YAOGAN 6 3.2 21:55:26 10° SE 21:58:59 45° ENE 22:02:35 10° N
SL-16 R/B 2.2 21:55:08 10° SSW 22:00:46 72° ESE 22:06:26 10° NNE
Cosmos 1939 Rocket 3.5 21:57:52 10° S 22:01:59 58° W 22:06:06 10° NNW
UNK 4.4 21:57:56 10° NNE 22:03:09 52° ESE 22:08:35 10° S
Timation 1 Rocket 4.4 22:00:30 10° NNW 22:06:34 89° SW 22:12:34 10° SSE
ARGOS 3.6 22:02:26 10° SE 22:07:40 52° ENE 22:12:56 10° N
Meteor 1-23 Rocket 4.4 22:02:39 10° SSW 22:08:18 85° WNW 22:14:04 10° N
Cosmos 2058 Rocket 4.0 22:04:40 10° NNW 22:08:54 48° W 22:13:05 10° SSW
H-2A R/B 3.2 22:08:05 10° ESE 22:12:19 29° ENE 22:16:38 10° N
GRACE-1 3.9 22:14:41 10° N 22:17:35 85° W 22:20:26 10° S
GRACE-2 3.9 22:15:07 10° N 22:18:01 85° W 22:20:53 10° S
Lacrosse 5 rocket 1.2 22:14:57 10° SW 22:18:51 79° SE 22:23:01 10° NE
SPOT 1/Viking Rocket 3.6 22:15:21 10° SSE 22:20:31 79° ENE 22:25:42 10° NNW
Cosmos 494 Rocket 4.1 22:16:38 10° SSW 22:21:45 83° WNW 22:26:55 10° NNE
Cosmos 1602 Rocket 3.6 22:18:27 10° S 22:22:56 77° E 22:27:26 10° NNE
Cosmos 1666 3.7 22:20:31 10° NNW 22:24:17 46° W 22:28:01 10° SSW
Okean 2 4.3 22:23:11 10° SSW 22:27:16 50° WNW 22:31:22 10° N
Cosmos 1812 Rocket 3.5 22:24:54 10° N 22:29:18 89° NE 22:33:30 11° S
Cosmos 1603 3.9 22:24:02 10° S 22:29:26 50° ESE 22:34:50 10° NE
MetOp-B 4.5 22:25:17 10° S 22:30:36 66° WSW 22:35:58 10° NNW
Geosat 4.5 22:29:02 10° NE 22:33:47 40° ESE 22:38:29 10° S
USA 245 4.4 22:27:59 10° SSE 22:34:10 83° WSW 22:39:31 10° NNW
Cosmos 1461 3.4 22:30:06 10° NW 22:34:22 52° WSW 22:37:40 15° SSE
Aureole 2 Rocket 2.6 22:30:34 10° SSW 22:34:30 86° WNW 22:38:06 10° NNE
Abrixas rocket 3.9 22:32:20 10° W 22:35:07 23° SSW 22:36:57 15° S
CZ-4 R/B 4.0 22:31:29 10° NNE 22:36:24 59° ESE 22:41:20 10° S
Cosmos 2333 Rocket 4.2 22:34:28 10° WSW 22:39:31 32° NW 22:44:35 10° NNE
Meteor 2-12 Rocket 4.5 22:34:37 10° N 22:40:46 90° ENE 22:46:28 12° S
SPOT 5 4.1 22:41:59 10° SSW 22:45:57 32° W 22:49:53 10° NNW
Cosmos 1346 Rocket 3.7 22:47:59 20° SE 22:49:52 30° E 22:53:19 10° NNE
Spot 4 4.3 22:50:54 18° SE 22:54:10 49° ENE 22:58:47 10° N
Cosmos 1943 3.8 22:52:33 16° SSE 22:56:27 36° ESE 23:01:37 10° NE
Cosmos 1515 3.6 22:53:47 15° S 22:56:57 79° E 23:00:50 10° NNE
Cosmos 1626 Rocket 4.4 22:52:48 10° SSW 22:57:07 50° WNW 23:01:27 10° N
CZ-4B R/B 3.8 22:52:08 10° N 22:57:08 69° WNW 23:02:13 10° SSW
SeaSat 1 4.4 22:55:15 10° SSW 22:58:55 21° WSW 23:02:37 10° WNW
Tsikada Rocket 4.5 22:55:38 10° SSW 23:01:59 65° WNW 23:08:21 10° N
Lacrosse 5 3.4 22:57:24 10° W 23:02:09 38° NNW 23:06:53 10° NE
ATLAS 3B R/B 3.6 22:56:52 13° S 23:02:41 34° ESE 23:09:16 10° NE
Landsat 7 3.8 23:00:12 19° SSE 23:03:41 85° WSW 23:08:29 10° NNW
USA 234 4.4 23:05:50 14° S 23:10:30 30° SW 23:16:11 10° WNW
Cosmos 1943 Rocket 3.0 23:05:45 10° NNW 23:11:01 42° NE 23:14:57 17° ESE
BREEZE M DEB (TANK) 3.6 23:09:57 10° SW 23:10:24 12° SW 23:10:24 12° SW
Atlas Centaur 2 4.2 23:06:30 10° SSW 23:11:50 19° SSE 23:12:30 18° SSE
Cosmos 1842 4.4 23:11:00 23° ESE 23:12:16 28° E 23:15:40 10° NNE
Cosmos 1953 Rocket 3.6 23:09:54 22° S 23:12:39 64° E 23:17:03 10° NNE
COSMOS 2455 2.8 23:06:47 10° SSW 23:12:41 65° ESE 23:18:40 10° NE
ATLAS CENTAUR R/B 3.9 23:08:32 10° W 23:13:02 31° NW 23:17:31 10° NNE
Spot 2 4.4 23:14:10 10° NNE 23:18:47 60° ESE 23:21:49 22° S
Terra 1.8 23:16:28 23° SSE 23:19:29 84° WSW 23:24:17 10° NNW
Cosmos 1766 3.2 23:22:20 10° N 23:26:21 81° E 23:28:12 31° SSE
Cosmos 407 Rocket 3.8 23:24:37 24° SSE 23:27:30 49° ESE 23:32:33 10° NNE
SL-24 R/B 4.4 23:26:36 10° N 23:31:28 87° E 23:34:40 23° S
SL-8 R/B 3.6 23:27:48 10° W 23:32:40 88° S 23:37:32 10° E
Cosmos 2369 Rocket 2.5 23:32:02 10° NW 23:37:37 59° WSW 23:40:50 25° S
Cosmos-2242 3.0 23:34:51 10° N 23:39:16 74° E 23:41:11 33° SSE
Cosmos 2084 4.3 23:35:24 10° NNW 23:39:18 42° NE 23:41:56 19° ESE
IGS 5A 4.0 23:40:06 26° SSW 23:42:12 52° W 23:46:18 10° NNW
Cosmos 1544 4.5 23:39:03 10° NNE 23:42:21 28° ENE 23:43:27 24° ESE
H-2A R/B 4.3 23:41:14 10° NE 23:43:27 15° E 23:43:39 15° E
SL-16 R/B 4.5 23:40:48 10° W 23:45:27 26° NW 23:50:08 10° NNE
Cosmos 1758 Rocket 3.7 23:44:43 24° SSW 23:47:21 72° W 23:51:44 10° N
Nadezhda 4 Rocket 4.3 23:44:02 26° SSE 23:47:22 51° E 23:53:29 10° NNE
SL-27 R/B 3.8 23:48:48 23° E 23:48:48 23° E 23:51:12 10° NE
Cosmos 1689 Rocket 4.4 23:49:55 15° E 23:50:45 16° ENE 23:52:51 10° NNE
H-2A R/B 2.8 23:48:36 21° SSW 23:51:35 43° W 23:56:23 10° NNW
Cosmos 1953 2.2 23:48:38 10° N 23:52:39 83° ENE 23:53:59 41° SSE
ALOS 2 4.0 23:51:36 20° ESE 23:53:35 29° ENE 23:57:23 10° N
